Weather History for Rotterdam, Netherlands

Change the Weather History Date:

Thursday, July 18, 2013

  Actual Average Record
Temperature  
Mean Temperature 70 °F -  
Max Temperature 80 °F 70 °F 89 °F (2006)
Min Temperature 59 °F 55 °F 44 °F (1996)
Cooling Degree Days 4    
Growing Degree Days 20 (Base 50)    
Moisture  
Dew Point 61 °F    
Average Humidity 73    
Maximum Humidity 100    
Minimum Humidity 36    
Precipitation  
Precipitation 0.00 in - - ()
Sea Level Pressure  
Sea Level Pressure 30.26 in    
Wind  
Wind Speed 5 mph ()    
Max Wind Speed 15 mph    
Max Gust Speed -    
Visibility 6.1 miles    
Events      
Averages and records for this station are not official NWS values.
T = Trace of Precipitation, MM = Missing Value Source: Averaged Metar Reports

Daily Weather History Graph

Daily Weather History Graph

Search for Another Location

Airport:

Trip Planner

Search our weather history database for the weather conditions in past years. The results will help you decide how hot, cold, wet, or windy it might be!

Date:

Astronomy

Jul. 18, 2013 Rise Set
Actual Time 5:44 AM CEST 9:51 PM CEST
Civil Twilight 4:59 AM CEST 10:36 PM CEST
Nautical Twilight 3:54 AM CEST 11:40 PM CEST
Astronomical Twilight 2:20 AM CEST 1:16 AM CEST
Moon 5:25 PM CEST (7/18) 1:32 AM CEST (7/18)
Length of Visible Light 17h 36m
Length of Day
16h 07m
Waxing Gibbous, 75% of the Moon is Illuminated
Jul 18
Waxing Gibbous
Jul 22
Full
Jul 29
Last Quarter
Aug 6
New
Aug 14
First Quarter

Hourly Weather History & Observations

Time (CEST) Temp. Heat Index Dew Point Humidity Pressure Visibility Wind Dir Wind Speed Gust Speed Precip Events Conditions
12:25 AM 64.4 °F - 62.6 °F 94% 30.27 in 6.2 mi North 3.5 mph - N/A   Unknown
12:55 AM 66.2 °F - 62.6 °F 88% 30.27 in 6.2 mi North 3.5 mph - N/A   Unknown
1:25 AM 64.4 °F - 62.6 °F 94% 30.24 in 6.2 mi Variable 2.3 mph - N/A   Unknown
1:55 AM 64.4 °F - 60.8 °F 88% 30.27 in 5.6 mi North 2.3 mph - N/A   Unknown
2:00 AM 64 °F - 61 °F 87% 30.28 in 6 mi North 2.2 mph - -   Mist
2:25 AM 62.6 °F - 60.8 °F 94% 30.27 in 4.3 mi NE 3.5 mph - N/A   Unknown
2:55 AM 62.6 °F - 60.8 °F 94% 30.27 in 3.7 mi NNE 4.6 mph - N/A   Unknown
3:25 AM 62.6 °F - 60.8 °F 94% 30.27 in 3.1 mi North 3.5 mph - N/A   Mist
3:55 AM 62.6 °F - 60.8 °F 94% 30.27 in 3.1 mi NNE 3.5 mph - N/A   Mist
4:25 AM 62.6 °F - 60.8 °F 94% 30.27 in 3.7 mi NNE 3.5 mph - N/A   Unknown
4:55 AM 60.8 °F - 60.8 °F 100% 30.27 in 3.1 mi North 2.3 mph - N/A   Mist
5:00 AM 61 °F - 60 °F 96% 30.28 in 3 mi North 2.2 mph - -   Mist
5:25 AM 59.0 °F - 59.0 °F 100% 30.27 in - Variable 2.3 mph - N/A   Mist
5:55 AM 60.8 °F - 59.0 °F 94% 30.27 in - Variable 2.3 mph - N/A   Mist
6:25 AM 60.8 °F - 60.8 °F 100% 30.27 in - North 3.5 mph - N/A   Mist
6:55 AM 60.8 °F - 60.8 °F 100% 30.27 in 2.2 mi North 3.5 mph - N/A   Mist
7:25 AM 62.6 °F - 60.8 °F 94% 30.27 in - North 3.5 mph - N/A   Mist
7:55 AM 64.4 °F - 62.6 °F 94% 30.27 in 3.1 mi North 4.6 mph - N/A   Partly Cloudy
8:00 AM 65 °F - 63 °F 89% 30.29 in 4 mi North 4.5 mph - -   Mist
8:25 AM 66.2 °F - 62.6 °F 88% 30.27 in 3.7 mi North 4.6 mph - N/A   Unknown
8:55 AM 68.0 °F - 62.6 °F 83% 30.27 in 4.3 mi NE 5.8 mph - N/A   Unknown
9:25 AM 68.0 °F - 62.6 °F 83% 30.27 in 5.0 mi NNE 5.8 mph - N/A   Unknown
9:55 AM 71.6 °F - 64.4 °F 78% 30.27 in 5.6 mi NNE 5.8 mph - N/A   Unknown
10:25 AM 71.6 °F - 62.6 °F 73% 30.27 in 6.2 mi NE 5.8 mph - N/A   Unknown
10:55 AM 75.2 °F - 64.4 °F 69% 30.27 in 6.2 mi North 5.8 mph - N/A   Unknown
11:00 AM 74 °F - 64 °F 62% 30.29 in 7 mi North 6.7 mph - -   Scattered Clouds
11:25 AM 75.2 °F - 62.6 °F 65% 30.27 in 6.2 mi North 6.9 mph - N/A   Unknown
11:55 AM 77.0 °F - 64.4 °F 65% 30.27 in 6.2 mi NNE 6.9 mph - N/A   Partly Cloudy
12:25 PM 77.0 °F - 62.6 °F 61% 30.27 in 6.2 mi North 8.1 mph - N/A   Scattered Clouds
12:55 PM 78.8 °F - 62.6 °F 57% 30.27 in 6.2 mi NE 8.1 mph - N/A   Partly Cloudy
1:25 PM 77.0 °F - 62.6 °F 61% 30.27 in 6.2 mi NNE 8.1 mph - N/A   Partly Cloudy
1:55 PM 78.8 °F - 62.6 °F 57% 30.27 in 6.2 mi NNE 9.2 mph - N/A   Scattered Clouds
2:00 PM 79 °F - 62 °F 46% 30.28 in 14 mi NNE 8.9 mph - -   Partly Cloudy
2:25 PM 78.8 °F - 62.6 °F 57% 30.27 in 6.2 mi NE 11.5 mph - N/A   Partly Cloudy
2:55 PM 80.6 °F 81.8 °F 62.6 °F 54% 30.27 in 6.2 mi NNE 10.4 mph - N/A   Partly Cloudy
3:25 PM 80.6 °F 81.5 °F 60.8 °F 51% 30.27 in 6.2 mi NNE 9.2 mph - N/A   Unknown
3:55 PM 80.6 °F 81.1 °F 59.0 °F 48% 30.27 in 6.2 mi NNE 9.2 mph - N/A   Unknown
4:25 PM 78.8 °F - 57.2 °F 47% 30.24 in 6.2 mi NE 10.4 mph - N/A   Unknown
4:55 PM 80.6 °F 81.1 °F 59.0 °F 48% 30.24 in 6.2 mi NNE 9.2 mph - N/A   Unknown
5:00 PM 79 °F - 57 °F 36% 30.26 in 19 mi NE 11.2 mph - -  
5:25 PM 78.8 °F - 55.4 °F 44% 30.24 in 6.2 mi NNE 11.5 mph - N/A   Unknown
5:55 PM 78.8 °F - 55.4 °F 44% 30.24 in 6.2 mi North 9.2 mph - N/A   Unknown
6:25 PM 78.8 °F - 57.2 °F 47% 30.24 in 6.2 mi NNE 10.4 mph - N/A   Unknown
6:55 PM 77.0 °F - 60.8 °F 57% 30.24 in 6.2 mi NE 11.5 mph - N/A   Unknown
7:25 PM 77.0 °F - 60.8 °F 57% 30.24 in 6.2 mi NE 12.7 mph - N/A   Unknown
7:55 PM 75.2 °F - 60.8 °F 61% 30.24 in 6.2 mi NE 15.0 mph - N/A   Unknown
8:00 PM 75 °F - 61 °F 52% 30.25 in 14 mi NE 13.4 mph - -   Partly Cloudy
8:25 PM 73.4 °F - 62.6 °F 69% 30.24 in 6.2 mi NE 12.7 mph - N/A   Unknown
8:55 PM 73.4 °F - 60.8 °F 65% 30.24 in 6.2 mi NNE 12.7 mph - N/A   Unknown
9:25 PM 71.6 °F - 60.8 °F 69% 30.24 in 6.2 mi NNE 10.4 mph - N/A   Unknown
9:55 PM 69.8 °F - 59.0 °F 68% 30.24 in 6.2 mi NNE 8.1 mph - N/A   Unknown
10:25 PM 68.0 °F - 59.0 °F 73% 30.27 in 6.2 mi NNE 8.1 mph - N/A   Unknown
10:55 PM 66.2 °F - 59.0 °F 78% 30.27 in 6.2 mi NNE 8.1 mph - N/A   Unknown
11:25 PM 66.2 °F - 57.2 °F 73% 30.27 in 6.2 mi NNE 6.9 mph - N/A   Unknown
11:55 PM 64.4 °F - 57.2 °F 77% 30.27 in 6.2 mi NNE 5.8 mph - N/A   Unknown